User: anonymous
Location: Fishcreek Rd Observing Site
(41.1865°N, 81.4271°W)
Time: 08:29:59
(UTC-04:00)
Language:

Iridium 45 - Orbit

View from above orbital plane
View from above orbital plane
View from above satellite
View from above satellite

Ground track
Ground track

The orbit data is extracted from the following two-line orbital elements,

1 25104U 97082A   14106.49068150  .00000464  00000-0  15653-3 0  7123
2 25104 087.0307 020.0497 0002706 107.6109 339.3792 14.35004556854433
Epoch (UTC): 16 April 2014 11:46:34
Eccentricity: 0.0002706
inclination: 87.0307°
perigee height: 773 km
apogee height: 777 km
right ascension of ascending node: 20.0497°
argument of perigee: 107.6109°
revolutions per day: 14.35004556
mean anomaly at epoch: 339.3792°
orbit number at epoch: 85443

The dashed part of the orbit path shows where the satellite is in the earth's shadow,  

DLR